Flag for Slovakia Weather past 2 weeks in Košice, Slovakia

36 °F

Light rain. Overcast.

Feels Like: 29 °F
Forecast: 30 / 37 °F
Wind: 8 mph from Northeast

Location: Kosice - Barca

Current Time: Nov 28, 2015 at 7:02:53 AM

Latest Report: Nov 28, 2015 at 6:30 AM

Visibility: N/A

Pressure: 29.74 "Hg

Humidity: 81%

Dew point: 30 °F

Location of KošiceLocation

Historic Weather in Košice — Graph


Košice temperature yesterday

Maximum temperature yesterday: 36 °F (at 1:00 AM)
Minimum temperature yesterday: 32 °F (at 6:00 PM)
Average temperature yesterday: 34 °F

Past Weeks' High & Low Weather Summary

High63 °F (Nov 18, 1:00 PM)100% (Nov 14, 5:00 AM)30.39 "Hg (Nov 14, 5:00 AM)
Low19 °F (Nov 25, 4:30 AM)48% (Nov 24, 12:30 PM)29.27 "Hg (Nov 21, 3:00 AM)
Average41 °F82%29.91 "Hg
* Reported Nov 13 5:00 AM — Nov 28 5:30 AM, Košice, Weather by CustomWeather, © 2015

Note: Actual official high and low records may vary slightly from our data, if they occured in-between our weather recording intervals... More about our weather records


Košice weather history for previous 24 hours

Time TempWeatherWind HumidityBarometerVisibility
5:30 AM
Sat, Nov 28
34 °FPassing clouds.9 mph81%29.77 "HgN/A
5:00 AM34 °FPassing clouds.9 mph81%29.77 "HgN/A
4:30 AM34 °FPassing clouds.10 mph81%29.77 "HgN/A
4:00 AM34 °FPassing clouds.9 mph81%29.80 "HgN/A
3:30 AM32 °FPassing clouds.10 mph87%29.80 "HgN/A
3:00 AM32 °FPassing clouds.12 mph80%29.80 "HgN/A
2:30 AM32 °FPassing clouds.10 mph80%29.83 "HgN/A
2:00 AM32 °FPassing clouds.10 mph80%29.86 "HgN/A
1:00 AM32 °FPassing clouds.10 mph80%29.86 "HgN/A
12:00 AM32 °FPassing clouds.12 mph80%29.89 "HgN/A
11:30 PM
Fri, Nov 27
32 °FPassing clouds.12 mph80%29.89 "HgN/A
11:00 PM32 °FPassing clouds.10 mph80%29.92 "HgN/A
10:30 PM32 °FClear.9 mph80%29.92 "Hg10 mi
10:00 PM32 °FPassing clouds.9 mph80%29.92 "HgN/A
9:30 PM32 °FPassing clouds.12 mph80%29.95 "HgN/A
9:00 PM32 °FPassing clouds.9 mph80%29.95 "HgN/A
8:30 PM32 °FPassing clouds.8 mph80%29.95 "HgN/A
8:00 PM32 °FClear.7 mph80%29.95 "Hg10 mi
7:30 PM32 °FClear.8 mph80%29.95 "Hg10 mi
7:00 PM32 °FClear.9 mph80%29.98 "Hg10 mi
6:30 PM32 °FClear.9 mph87%29.98 "Hg10 mi
6:00 PM32 °FClear.12 mph87%29.98 "Hg10 mi
5:30 PM34 °FClear.13 mph81%29.98 "Hg10 mi
5:00 PM34 °FClear.14 mph81%29.98 "Hg10 mi
4:30 PM34 °FClear.13 mph81%29.98 "Hg10 mi
4:00 PM36 °FClear.14 mph75%29.98 "Hg10 mi
3:30 PM36 °FPartly sunny.14 mph75%30.01 "HgN/A
3:00 PM36 °FBroken clouds.13 mph75%30.01 "HgN/A
2:30 PM36 °FPartly sunny.14 mph75%30.01 "HgN/A
2:00 PM36 °FMore clouds than sun.16 mph75%30.01 "HgN/A
1:30 PM36 °FPartly sunny.16 mph75%30.01 "HgN/A
1:00 PM36 °FPartly sunny.16 mph75%30.01 "HgN/A
12:30 PM36 °FPartly sunny.15 mph75%30.01 "HgN/A
12:00 PM36 °FPartly sunny.18 mph75%30.01 "HgN/A
11:30 AM36 °FPartly sunny.16 mph75%30.04 "HgN/A
11:00 AM36 °FPartly sunny.16 mph75%30.04 "HgN/A
10:30 AM36 °FBroken clouds.17 mph75%30.04 "HgN/A
10:00 AM36 °FPartly sunny.20 mph75%30.04 "HgN/A
9:30 AM36 °FLight snow. Overcast.21 mph75%30.04 "HgN/A
9:00 AM34 °FLight snow. Mostly cloudy.17 mph81%30.04 "HgN/A
7:30 AM34 °FPartly sunny.17 mph75%30.01 "HgN/A
7:00 AM34 °FMore clouds than sun.18 mph75%30.01 "HgN/A
Weather by CustomWeather, © 2015

See weather overviewHow to use our weather pages